map of BEY home
Great Circle Mapper logo
BEY - Airport
Location
City:  Beirut, Lebanon
Name:Rafic Hariri International Airport
ICAO / IATA:OLBA / BEY

Details
Type:Airport (Aerodrome, Airfield)
Use:Public/Civil, Military, International (customs port of entry)
Latitude:3349'15"N (33.820931)
Longitude:3529'18"E (35.488389)
Datum:WGS 1984
Elevation:87 ft (27 m)
Runways:3
Longest:12467 × 148 ft (3800 × 45 m), paved

Time
Time Zone:UTC+2 (DST+3)
Local Time:

Weather
METAR:OLBA 011200Z 21004KT 9999 TS FEW020CB BKN026 22/14 Q1015 NOSIG

Related Locations
Nearby:
Farthest:NTAV: 11721 mi / 18862 km
Raivavae, Tubuai Islands, Austral Islands, PF

Find:

   beyond  
but within

Other Information
Maps:
NOTAMs:
Links:
Sources:

  
flag of Lebanon   

Sectional Chart

Flight Planning
at skyvector.com

Satellite Image

Google Maps Satellite View

 

Copyright © 2004-2014 Karl L. Swartz. All rights reserved.
The Great Circle Mapper name and logo are trademarks of the Great Circle Mapper.
All other trademarks mentioned herein belong to their respective owners.
Please see credits for attibutions and further copyright information.

  Follow gcmap on Facebook Follow gcmap on Twitter

hCard Microformat

Geo Microformat